Probability
0 0 0 0 0 0 0 0 0 0 0 0 0 0 0 0 0 0 0 0 0 0 0 0 0 0 0 0 0 0 0 0 0 0 0 0 0 0 0 0 0 0 0 0
0 0 0 0 0 0 0 0 0 0 0 0 0 0 0 0 0 0 0 0 0 0 0 0 0 0 0 0 0 0 0 0 0 0 0 0 0 0 0 0 0 0 0 0
0 0 0 0 0 0 0 0 0 0 0 0 0 0 0 0 0 0 0 0 0 0 0 0 0 0 0 0 0 0 0 0 0 0 0 0 0 0 0 0 0 0 0 0
0 0 0 0 0 0 0 0 0 0 0 0 0 0 0 0 0 0 0 0 0 0 0 0 0 0 0 0 0 0 0 0 0 0 0 0 0 0 0 0 0 0 0 0
0 0 0 0 0 0 0 0 0 0 0 0 0 0 0 0 0 0 0 0 0 0 0 0 0 0 0 0 0 0 0 0 0 0 0 0 0 0 0 0 0 0 0 0
0 0 0 0 0 0 0 0 0 0 0 0 0 0 0 0 0 0 0 0 0 0 0 0 0 0 0 0 0 0 0 0 0 0 0 0 0 0 0 0 0 0 0 0
0 0 0 0 0 0 0 0 0 0 0 0 0 0 0 0 0 0 0 0 0 0 0 0 0 0 0 0 0 0 0 0 0 0 0 0 0 0 0 0 0 0 0 0
0 0 0 0 0 0 0 0 0 0 0 0 0 0 0 0 0 0 0 0 0 0 0 0 0 0 0 0 0 0 0 0 0 0 0 0 0 0 0 0 0 0 0 0
0 0 0 0 0 0 0 0 0 0 0 0 0 0 0 0 0 0 0 0 0 0 0 0 0 0 0 0 0 0 0 0 0 0 0 0 0 0 0 0 0 0 0 0
0 0 0 0 0 0 0 0 0 0 0 0 0 0 0 0 0 0 0 0 0 0 0 0 0 0 0 0 0 0 0 0 0 0 0 0 0 0 0 0 0 0 0 0
0 0 0 0 0 0 0 0 0 0 0 0 0 0 0 0 0 0 0 0 0 0 0 0 0 0 0 0 0 0 0 0 0 0 0 0 0 0 0 0 0 0 0 0
0 0 0 0 0 0 0 0 0 0 0 0 0 0 0 0 0 0 0 0 0 0 0 0 0 0 0 0 0 0 0 0 0 0 0 0 0 0 0 0 0 0 0 0
0 0 0 0 0 0 0 0 0 0 0 0 0 0 0 0 0 0 0 0 0 0 0 0 0 0 0 0 0 0 0 0 0 0 0 0 0 0 0 0 0 0 0 0
0 0 0 0 0 0 0 0 0 0 0 0 0 0 0 0 0 0 0 0 0 0 0 0 0 0 0 0 0 0 0 0 0 0 0 0 0 0 0 0 0 0 0 0
0 0 0 0 0 0 0 0 0 0 0 0 0 0 0 0 0 0 0 0 0 0 0 0 0 0 0 0 0 0 0 0 0 0 0 0 0 0 0 0 0 0 0 0
0 0 0 0 0 0 0 0 0 0 0 0 0 0 0 0 0 0 0 0 0 0 0 0 0 0 0 0 0 0 0 0 0 0 0 0 0 0 0 0 0 0 0 0
0 0 0 0 0 0 0 0 0 0 0 0 0 0 0 0 0 0 0 0 0 0 0 0 0 0 0 0 0 0 0 0 0 0 0 0 0 0 0 0 0 0 0 0
0 0 0 0 0 0 0 0 0 0 0 0 0 0 0 0 0 0 0 0 0 0 0 0 0 0 0 0 0 0 0 0 0 0 0 0 0 0 0 0 0 0 0 0
0 0 0 0 0 0 0 0 0 0 0 0 0 0 0 0 0 0 0 0 0 0 0 0 0 0 0 0 0 0 0 0 0 0 0 0 0 0 0 0 0 0 0 0
0 0 0 0 0 0 0 0 0 0 0 0 0 0 0 0 0 0 0 0 0 0 0 0 0 0 0 0 0 0 0 0 0 0 0 0 0 0 0 0 0 0 0 0
0 0 0 0 0 0 0 0 0 0 0 0 0 0 0 0 0 0 0 0 0 0 0 0 0 0 0 0 0 0 0 0 0 0 0 0 0 0 0 0 0 0 0 0
0 0 0 0 0 0 0 0 0 0 0 0 0 0 0 0 0 0 0 0 0 0 0 0 0 0 0 0 0 0 0 0 0 0 0 0 0 0 0 0 0 0 0 0
0 0 0 0 0 0 0 0 0 0 0 0 0 0 0 0 0 0 0 0 0 0 0 0 0 0 0 0 0 0 0 0 0 0 0 0 0 0 0 0 0 0 0 0
0 0 0 0 0 0 0 0 0 0 0 0 0 0 0 0 0 0 0 0 0 0 0 0 0 0 0 0 0 0 0 0 0 0 0 0 0 0 0 0 0 0 0 0
0 0 0 0 0 0 0 0 0 0 0 0 0 0 0 0 0 0 0 0 0 0 0 0 0 0 0 0 0 0 0 0 0 0 0 0 0 0 0 0 0 0 0 0
0 0 0 0 0 0 0 0 0 0 0 0 0 0 0 0 0 0 0 0 0 0 0 0 0 0 0 0 0 0 0 0 0 0 0 0 0 0 0 0 0 0 0 0
Wind_Speed
3 4 6 9 10 7 5 4 6 8 5 5 9 12 12 9 7 8 8 8 8 6 4 3 4 5 6 5 6 6 7 6 5 4 4 3 2 1 1 1 1 1 1 1
3 6 11 8 6 5 6 6 7 7 3 3 7 11 11 9 10 12 13 12 11 7 5 4 4 4 4 5 6 6 6 6 5 4 3 3 3 2 1 1 1 1 1 1
10 8 7 7 6 6 6 6 6 6 5 4 4 9 7 6 5 6 9 11 12 13 11 8 6 4 5 5 5 6 6 6 5 5 4 4 3 3 2 2 1 1 0 0
8 7 5 6 7 8 7 7 6 4 1 5 1 6 9 5 4 6 8 10 11 10 9 8 7 6 5 4 5 6 6 6 6 6 5 5 3 2 1 0 0 1 1 1
8 7 8 9 9 9 8 4 3 2 2 3 3 5 10 4 7 9 10 12 12 11 11 11 9 7 6 5 5 5 6 6 5 5 6 6 4 2 1 1 1 2 2 2
7 5 8 10 6 6 4 3 3 4 3 4 7 7 10 7 10 8 10 12 12 12 10 9 7 7 5 5 5 5 6 5 5 6 5 6 5 4 3 1 1 1 1 2
4 5 4 5 5 2 4 5 2 3 1 8 4 5 12 11 9 10 15 16 14 13 12 12 10 9 8 7 6 6 7 5 5 6 5 5 5 5 4 2 1 0 1 1
8 7 7 7 9 8 6 9 7 6 5 6 3 8 11 7 5 6 10 13 13 13 12 13 13 11 9 9 8 7 7 6 5 5 5 4 4 3 2 2 2 1 1 2
10 8 4 6 6 12 7 6 7 4 3 4 7 8 9 3 2 3 9 12 15 15 14 13 12 11 10 9 8 8 8 6 6 6 5 4 4 3 2 2 1 1 1 2
9 5 3 1 3 3 8 8 5 5 5 6 7 6 6 7 5 5 10 14 14 13 12 12 13 12 10 9 8 7 7 7 6 6 5 4 3 3 2 2 1 1 2 2
8 6 2 2 8 10 6 5 5 5 5 5 4 8 6 7 7 9 12 14 15 16 16 14 13 11 10 8 8 8 7 6 6 5 4 4 3 2 2 1 1 1 2 2
8 7 5 7 5 5 8 9 9 6 6 5 4 9 6 4 5 8 10 11 12 14 13 12 11 11 10 10 9 8 7 7 6 5 5 4 3 2 1 1 2 2 2 3
11 8 5 1 2 2 5 7 9 6 4 4 5 9 4 2 1 4 7 9 10 11 10 10 10 11 12 11 10 8 7 7 6 5 5 3 2 2 2 2 2 2 3 4
10 7 9 11 8 8 7 8 10 9 6 7 9 9 7 5 4 5 6 8 9 10 11 11 11 10 10 10 9 8 7 6 6 5 4 3 3 3 3 3 3 3 4 4
8 7 6 6 5 5 8 9 11 12 12 11 10 11 12 9 9 8 6 6 7 9 10 12 12 10 9 9 8 8 7 6 5 5 4 3 3 3 3 3 4 4 5 5
6 7 6 5 6 6 6 8 10 11 11 12 10 12 9 6 4 5 6 8 9 10 11 11 11 11 11 10 9 8 7 6 5 5 4 3 3 3 4 4 5 5 6 6
6 7 6 5 4 2 8 10 10 8 8 10 14 17 8 5 7 8 9 10 11 10 10 11 11 11 10 10 9 9 7 5 5 4 3 3 3 4 5 5 5 6 6 6
9 8 5 4 3 8 10 6 9 9 9 10 9 7 6 8 5 3 5 8 9 9 9 9 9 8 8 7 7 6 6 5 4 3 3 3 4 5 5 5 6 6 6 6
6 8 5 5 5 7 8 5 6 8 9 7 9 7 3 3 3 2 2 4 7 7 8 8 8 8 8 8 7 7 5 4 3 3 4 4 4 5 5 6 7 6 6 7
3 5 6 5 5 8 9 5 4 5 7 6 6 7 6 7 3 5 2 4 6 7 7 8 8 8 8 6 6 6 4 3 4 4 5 5 5 5 6 7 7 6 6 7
5 4 5 6 6 8 9 3 5 6 9 4 6 7 9 8 6 3 6 5 7 8 8 9 9 7 6 6 6 5 3 4 5 4 4 5 5 6 7 7 6 7 7 7
11 8 8 6 6 11 6 7 9 9 3 3 5 6 7 5 5 6 7 8 8 8 8 8 7 6 4 5 5 3 4 4 4 4 5 6 6 6 5 6 7 7 7 7
9 11 9 11 10 6 7 8 6 5 5 5 5 5 7 7 6 6 6 7 7 7 7 6 6 5 3 3 3 3 4 3 3 4 5 6 6 6 6 6 7 7 6 6
5 4 5 4 6 4 4 3 3 5 5 5 5 7 8 7 8 7 8 7 6 6 5 5 5 4 2 2 2 4 4 3 4 5 6 6 6 6 6 5 5 6 6 7
7 7 5 5 4 1 3 5 5 4 4 5 5 5 7 9 8 7 7 7 6 5 4 4 4 4 3 2 3 4 4 3 4 6 6 6 6 6 6 6 6 7 7 8
6 8 9 8 8 8 7 6 7 7 6 7 7 5 5 7 8 7 7 6 5 5 4 4 3 3 3 3 4 4 4 4 5 5 6 5 5 5 6 7 8 12 14 19
Wind_Direction
162 128 196 208 203 206 212 235 261 262 254 217 236 251 256 247 225 216 204 188 181 175 164 124 100 96 96 101 110 117 120 126 125 119 120 117 116 99 82 92 125 151 174 182
119 220 219 212 208 211 225 247 264 279 281 230 257 264 258 240 219 207 195 187 177 167 157 137 118 103 106 115 114 116 121 125 127 125 124 123 121 109 103 58 56 77 122 152
188 218 213 208 217 220 233 226 239 259 310 315 300 294 275 264 227 209 194 182 174 170 164 156 144 131 125 130 135 129 126 123 121 119 107 88 71 54 42 24 360 348 34 128
217 233 205 203 218 200 239 231 221 235 270 283 277 289 283 263 249 209 190 179 178 171 161 157 154 150 150 150 137 127 124 120 120 119 122 127 131 144 182 197 311 340 5 10
222 205 200 213 217 193 215 213 202 217 214 279 251 239 277 262 242 226 201 189 183 174 166 163 163 158 152 148 140 132 124 119 119 118 126 124 124 139 126 77 49 9 357 0
222 218 198 206 208 189 165 91 33 45 81 268 227 200 271 236 222 215 197 191 183 173 166 159 154 145 142 144 140 137 130 127 127 124 128 134 140 141 128 112 82 356 342 345
239 245 219 157 139 131 125 109 1 325 308 250 225 204 249 249 230 204 191 188 182 173 167 163 161 161 160 161 158 152 143 141 140 134 136 145 149 149 153 160 163 174 318 310
198 238 213 187 172 173 180 159 179 218 235 275 258 227 252 264 267 212 183 174 172 175 174 172 172 169 168 169 166 161 157 153 151 145 147 148 148 147 159 170 172 195 226 254
187 227 229 202 183 156 160 196 187 175 261 272 272 277 298 283 347 145 156 165 179 182 180 178 175 173 172 172 173 169 163 158 160 157 151 150 151 150 162 170 171 209 246 264
162 201 231 206 119 167 161 163 137 166 206 244 270 264 253 263 239 184 177 182 186 184 184 182 181 179 177 174 170 166 163 163 163 160 160 157 162 164 166 160 197 261 282 295
159 174 215 186 187 184 159 167 173 180 190 188 250 266 236 244 222 198 197 192 187 187 189 188 186 181 173 165 164 165 165 158 160 161 156 150 162 164 157 169 237 267 282 298
162 151 199 231 240 198 184 185 169 181 227 205 208 267 279 282 232 200 200 197 194 193 191 187 180 173 170 170 168 168 166 163 165 160 152 156 160 150 162 227 258 267 280 287
156 150 160 268 276 200 205 205 196 189 180 192 199 261 296 333 262 213 204 201 195 191 187 181 177 177 177 173 169 166 165 164 160 153 150 153 161 174 216 242 259 270 278 287
145 150 180 195 202 184 199 211 200 189 206 225 226 249 279 280 262 240 219 205 194 190 186 182 181 179 174 169 165 162 163 161 156 153 155 170 196 212 228 243 257 266 272 280
138 172 198 212 211 178 201 210 201 203 211 216 234 236 247 246 236 229 215 195 185 186 186 184 180 173 166 161 160 158 158 159 156 157 170 199 216 225 238 252 261 268 272 272
136 167 183 221 222 212 227 227 212 215 221 229 246 258 245 242 220 214 206 192 193 194 189 181 172 166 166 163 159 156 159 164 159 167 193 213 225 240 250 257 264 271 274 274
153 147 159 217 223 206 243 221 208 207 208 201 226 244 242 225 217 213 206 197 199 193 181 174 170 168 165 161 157 161 163 158 160 179 207 226 237 250 257 262 269 270 271 272
150 148 152 172 158 224 239 224 206 214 231 217 225 242 226 222 219 218 201 193 194 182 170 164 156 150 148 145 145 145 146 154 168 193 225 240 246 254 263 267 268 268 266 268
148 145 143 155 201 258 284 246 193 200 247 227 222 233 199 127 77 332 264 190 183 170 156 149 145 140 138 141 142 139 147 157 180 218 239 247 245 253 263 265 266 266 268 270
101 127 137 152 181 223 238 230 184 147 257 243 199 194 168 138 163 247 201 140 130 127 128 129 126 124 130 139 138 140 157 176 218 235 244 249 246 248 255 260 265 266 266 268
146 145 165 175 208 248 247 217 124 177 239 216 179 176 168 183 198 174 131 120 125 123 124 126 125 128 138 140 135 146 173 218 235 244 252 257 254 253 256 262 264 270 273 275
172 173 185 172 202 245 222 151 184 211 183 160 166 169 170 164 123 126 130 129 128 122 121 124 124 126 133 138 140 166 219 239 249 255 260 263 263 264 267 266 271 273 275 279
193 188 183 190 210 227 185 196 203 160 164 175 168 166 148 143 149 143 138 135 132 129 129 126 130 131 136 149 157 197 237 249 256 261 264 266 270 269 268 269 275 280 277 277
233 174 158 211 244 229 209 200 175 172 174 171 162 155 153 154 152 145 143 139 135 131 132 129 132 142 169 193 201 219 245 254 258 266 271 272 274 277 275 271 269 273 276 278
196 168 173 212 234 165 227 209 188 159 139 133 134 151 156 146 148 149 148 146 142 134 132 137 148 169 205 227 244 250 255 260 266 269 271 274 271 272 278 273 265 273 261 267
188 172 175 206 201 183 209 198 171 160 166 158 143 136 140 147 146 141 142 141 138 137 136 143 160 190 225 244 260 267 265 256 259 268 271 270 271 273 273 280 286 280 281 290